| time (UTC) | temp C | wind direction | speed KPH | gust KPH | rain 1hr cm | rain 24hr cm | rain mn cm | humidity % | barometer mb |
| 20260506062018 | 18 | 180 | 1.6 | 6.4 | 0.00 | 0.00 | 0.00 | 68 | 1017.4 |
| 20260506061103 | 18 | 0.0 | 0.0 | 0.00 | 0.00 | 0.00 | 68 | 1017.3 | |
| 20260506051019 | 17 | 0.0 | 0.0 | 0.00 | 0.00 | 0.00 | 72 | 1017.2 | |
| 20260506045018 | 16 | 0.0 | 0.0 | 0.00 | 0.00 | 0.00 | 74 | 1017.0 | |
| 20260506044019 | 15 | 0.0 | 0.0 | 0.00 | 0.00 | 0.00 | 75 | 1016.9 | |
| 20260506043042 | 15 | 0.0 | 0.0 | 0.00 | 0.00 | 0.00 | 76 | 1016.7 | |
| 20260506042042 | 14 | 0.0 | 0.0 | 0.00 | 0.00 | 0.00 | 76 | 1016.6 | |
| 20260506041042 | 14 | 0.0 | 0.0 | 0.00 | 0.00 | 0.00 | 75 | 1016.6 | |
| 20260506040019 | 14 | 0.0 | 0.0 | 0.00 | 0.00 | 0.00 | 75 | 1016.5 | |
| 20260506035020 | 14 | 0.0 | 0.0 | 0.00 | 0.00 | 0.00 | 74 | 1016.4 | |
| 20260506034020 | 14 | 0.0 | 0.0 | 0.00 | 0.00 | 0.00 | 74 | 1016.3 | |
| 20260506033019 | 14 | 0.0 | 0.0 | 0.00 | 0.00 | 0.00 | 74 | 1016.4 | |
| 20260506032019 | 14 | 0.0 | 0.0 | 0.00 | 0.00 | 0.00 | 74 | 1016.4 | |
| 20260506031020 | 14 | 0.0 | 0.0 | 0.00 | 0.00 | 0.00 | 73 | 1016.4 | |
| 20260506030018 | 14 | 0.0 | 0.0 | 0.00 | 0.00 | 0.00 | 73 | 1016.3 | |
| 20260506025018 | 14 | 0.0 | 0.0 | 0.00 | 0.00 | 0.00 | 72 | 1016.3 | |
| 20260506024018 | 14 | 0.0 | 0.0 | 0.00 | 0.00 | 0.00 | 71 | 1016.4 | |
| 20260506023124 | 14 | 0.0 | 0.0 | 0.00 | 0.00 | 0.00 | 71 | 1016.4 | |
| 20260506022018 | 14 | 0.0 | 0.0 | 0.00 | 0.00 | 0.00 | 70 | 1016.6 | |
| 20260506021019 | 14 | 0.0 | 0.0 | 0.00 | 0.00 | 0.00 | 70 | 1016.4 | |
| 20260506020021 | 14 | 0.0 | 0.0 | 0.00 | 0.00 | 0.00 | 70 | 1016.4 | |
| 20260506015102 | 14 | 0.0 | 0.0 | 0.00 | 0.00 | 0.00 | 69 | 1016.3 | |
| 20260506014041 | 14 | 0.0 | 0.0 | 0.00 | 0.00 | 0.00 | 69 | 1016.2 | |
| 20260506013018 | 14 | 0.0 | 0.0 | 0.00 | 0.00 | 0.00 | 69 | 1016.1 | |
| 20260506012018 | 15 | 0.0 | 0.0 | 0.00 | 0.00 | 0.00 | 68 | 1016.2 | |
| 20260506011018 | 15 | 0.0 | 0.0 | 0.00 | 0.00 | 0.00 | 67 | 1016.2 | |
| 20260506010041 | 15 | 0.0 | 0.0 | 0.00 | 0.00 | 0.00 | 65 | 1016.2 | |
| 20260506005020 | 15 | 0.0 | 0.0 | 0.00 | 0.00 | 0.00 | 64 | 1016.2 | |
| 20260506004041 | 15 | 0.0 | 0.0 | 0.00 | 0.00 | 0.00 | 64 | 1016.1 | |
| 20260506003018 | 15 | 0.0 | 0.0 | 0.00 | 0.00 | 0.00 | 62 | 1016.0 | |
| 20260506002018 | 15 | 0.0 | 0.0 | 0.00 | 0.00 | 0.00 | 61 | 1016.1 | |
| 20260506001019 | 15 | 0.0 | 0.0 | 0.00 | 0.00 | 0.00 | 61 | 1016.0 | |
| 20260506000018 | 16 | 0.0 | 0.0 | 0.00 | 0.00 | 0.00 | 60 | 1016.1 | |
| 20260505235017 | 16 | 0.0 | 0.0 | 0.00 | 0.00 | 0.00 | 59 | 1015.9 | |
| 20260505234019 | 16 | 0.0 | 0.0 | 0.00 | 0.00 | 0.00 | 59 | 1015.9 | |
| 20260505233020 | 16 | 0.0 | 0.0 | 0.00 | 0.00 | 0.00 | 59 | 1015.9 | |
| 20260505232018 | 16 | 0.0 | 0.0 | 0.00 | 0.00 | 0.00 | 58 | 1015.9 | |
| 20260505231019 | 16 | 0.0 | 0.0 | 0.00 | 0.00 | 0.00 | 58 | 1015.9 | |
| 20260505230019 | 16 | 0.0 | 0.0 | 0.00 | 0.00 | 0.00 | 58 | 1015.9 | |
| 20260505225020 | 16 | 0.0 | 0.0 | 0.00 | 0.00 | 0.00 | 57 | 1015.9 | |
| 20260505224019 | 16 | 0.0 | 0.0 | 0.00 | 0.00 | 0.00 | 56 | 1016.1 | |
| 20260505223039 | 16 | 0.0 | 0.0 | 0.00 | 0.00 | 0.00 | 56 | 1016.1 | |
| 20260505222017 | 17 | 0.0 | 0.0 | 0.00 | 0.00 | 0.00 | 55 | 1016.1 | |
| 20260505221018 | 17 | 0.0 | 0.0 | 0.00 | 0.00 | 0.00 | 54 | 1016.0 | |
| 20260505220017 | 17 | 0.0 | 0.0 | 0.00 | 0.00 | 0.00 | 54 | 1016.0 | |
| 20260505215019 | 17 | 0.0 | 0.0 | 0.00 | 0.00 | 0.00 | 53 | 1016.0 | |
| 20260505214017 | 17 | 0.0 | 0.0 | 0.00 | 0.00 | 0.00 | 52 | 1015.9 | |
| 20260505213017 | 17 | 0.0 | 0.0 | 0.00 | 0.00 | 0.00 | 51 | 1016.0 | |
| 20260505212019 | 17 | 0.0 | 0.0 | 0.00 | 0.00 | 0.00 | 50 | 1015.9 | |
| 20260505211040 | 17 | 0.0 | 0.0 | 0.00 | 0.00 | 0.00 | 49 | 1015.9 | |
| 20260505210019 | 17 | 0.0 | 0.0 | 0.00 | 0.00 | 0.00 | 48 | 1015.8 | |
| 20260505205020 | 18 | 0.0 | 0.0 | 0.00 | 0.00 | 0.00 | 47 | 1015.6 | |
| 20260505204018 | 18 | 0.0 | 0.0 | 0.00 | 0.00 | 0.00 | 47 | 1015.6 | |
| 20260505203104 | 18 | 0.0 | 0.0 | 0.00 | 0.00 | 0.00 | 45 | 1015.4 | |
| 20260505202019 | 18 | 0.0 | 0.0 | 0.00 | 0.00 | 0.00 | 45 | 1015.3 | |
| 20260505201041 | 19 | 0.0 | 0.0 | 0.00 | 0.00 | 0.00 | 44 | 1015.3 | |
| 20260505200018 | 19 | 0.0 | 0.0 | 0.00 | 0.00 | 0.00 | 43 | 1015.3 | |
| 20260505195018 | 19 | 0.0 | 0.0 | 0.00 | 0.00 | 0.00 | 43 | 1015.1 | |
| 20260505194019 | 20 | 0.0 | 0.0 | 0.00 | 0.00 | 0.00 | 43 | 1015.1 | |
| 20260505193019 | 20 | 0.0 | 0.0 | 0.00 | 0.00 | 0.00 | 42 | 1014.8 | |
| 20260505192040 | 20 | 0.0 | 0.0 | 0.00 | 0.00 | 0.00 | 42 | 1014.8 | |
| 20260505191018 | 20 | 0.0 | 0.0 | 0.00 | 0.00 | 0.00 | 41 | 1014.7 | |
| 20260505190020 | 21 | 0.0 | 0.0 | 0.00 | 0.00 | 0.00 | 39 | 1014.7 | |
| 20260505185041 | 21 | 0.0 | 0.0 | 0.00 | 0.00 | 0.00 | 39 | 1014.6 | |
| 20260505184020 | 22 | 0.0 | 0.0 | 0.00 | 0.00 | 0.00 | 39 | 1014.5 | |
| 20260505183018 | 22 | 0.0 | 0.0 | 0.00 | 0.00 | 0.00 | 37 | 1014.4 | |
| 20260505182020 | 22 | 0.0 | 0.0 | 0.00 | 0.00 | 0.00 | 37 | 1014.3 | |
| 20260505181018 | 23 | 0.0 | 0.0 | 0.00 | 0.00 | 0.00 | 36 | 1014.0 | |
| 20260505180018 | 23 | 0.0 | 0.0 | 0.00 | 0.00 | 0.00 | 37 | 1014.0 | |
| 20260505175018 | 23 | 0.0 | 0.0 | 0.00 | 0.00 | 0.00 | 36 | 1014.1 | |
| 20260505174018 | 23 | 0.0 | 0.0 | 0.00 | 0.00 | 0.00 | 37 | 1014.1 | |
| 20260505173040 | 24 | 0.0 | 0.0 | 0.00 | 0.00 | 0.00 | 37 | 1014.1 | |
| 20260505172019 | 24 | 0.0 | 4.8 | 0.00 | 0.00 | 0.00 | 36 | 1014.1 | |
| 20260505171018 | 24 | 0.0 | 0.0 | 0.00 | 0.00 | 0.00 | 36 | 1013.9 | |
| 20260505170018 | 25 | 0.0 | 4.8 | 0.00 | 0.00 | 0.00 | 35 | 1014.0 | |
| 20260505165018 | 25 | 0.0 | 3.2 | 0.00 | 0.00 | 0.00 | 36 | 1014.2 | |
| 20260505164018 | 25 | 0.0 | 3.2 | 0.00 | 0.00 | 0.00 | 35 | 1014.3 | |
| 20260505163018 | 26 | 0.0 | 1.6 | 0.00 | 0.00 | 0.00 | 34 | 1014.1 | |
| 20260505162020 | 26 | 0.0 | 6.4 | 0.00 | 0.00 | 0.00 | 33 | 1014.2 | |
| 20260505161018 | 26 | 0.0 | 8.0 | 0.00 | 0.00 | 0.00 | 33 | 1014.0 | |
| 20260505153018 | 26 | 203 | 1.6 | 11.3 | 0.00 | 0.00 | 0.00 | 38 | 1014.2 |
| 20260505152018 | 26 | 0.0 | 8.0 | 0.00 | 0.00 | 0.00 | 36 | 1014.3 | |
| 20260505151017 | 26 | 203 | 1.6 | 8.0 | 0.00 | 0.00 | 0.00 | 35 | 1014.3 |
| 20260505125017 | 26 | 203 | 3.2 | 14.5 | 0.00 | 0.00 | 0.00 | 36 | 1015.0 |
| 20260505124040 | 26 | 203 | 1.6 | 11.3 | 0.00 | 0.00 | 0.00 | 39 | 1015.1 |
| 20260505123018 | 26 | 203 | 1.6 | 8.0 | 0.00 | 0.00 | 0.00 | 40 | 1015.3 |
| 20260505122018 | 26 | 225 | 1.6 | 11.3 | 0.00 | 0.00 | 0.00 | 41 | 1015.4 |
| 20260505121019 | 25 | 225 | 1.6 | 9.7 | 0.00 | 0.00 | 0.00 | 42 | 1015.5 |
| 20260505120017 | 26 | 225 | 1.6 | 4.8 | 0.00 | 0.00 | 0.00 | 42 | 1015.7 |
| 20260505115018 | 26 | 225 | 1.6 | 9.7 | 0.00 | 0.00 | 0.00 | 40 | 1015.7 |
| 20260505114017 | 27 | 0.0 | 4.8 | 0.00 | 0.00 | 0.00 | 37 | 1015.9 | |
| 20260505113040 | 27 | 248 | 1.6 | 4.8 | 0.00 | 0.00 | 0.00 | 34 | 1015.8 |
| 20260505112020 | 27 | 248 | 1.6 | 3.2 | 0.00 | 0.00 | 0.00 | 33 | 1015.9 |
| 20260505111019 | 26 | 0.0 | 4.8 | 0.00 | 0.00 | 0.00 | 33 | 1015.9 | |
| 20260505102104 | 25 | 248 | 1.6 | 12.9 | 0.00 | 0.00 | 0.00 | 40 | 1016.4 |
| 20260505101021 | 25 | 0.0 | 6.4 | 0.00 | 0.00 | 0.00 | 40 | 1016.4 | |
| 20260505100019 | 25 | 0.0 | 3.2 | 0.00 | 0.00 | 0.00 | 41 | 1016.4 | |
| 20260505095020 | 25 | 0.0 | 3.2 | 0.00 | 0.00 | 0.00 | 41 | 1016.5 | |
| 20260505094021 | 24 | 0.0 | 4.8 | 0.00 | 0.00 | 0.00 | 43 | 1016.7 | |
| 20260505093105 | 23 | 0.0 | 3.2 | 0.00 | 0.00 | 0.00 | 44 | 1016.8 | |
| 20260505092020 | 23 | 0.0 | 6.4 | 0.00 | 0.00 | 0.00 | 46 | 1016.9 | |
| 20260505091019 | 23 | 0.0 | 4.8 | 0.00 | 0.00 | 0.00 | 46 | 1016.9 | |
| 20260505090021 | 23 | 248 | 1.6 | 6.4 | 0.00 | 0.00 | 0.00 | 48 | 1016.9 |
| 20260505085020 | 23 | 248 | 1.6 | 12.9 | 0.00 | 0.00 | 0.00 | 48 | 1017.0 |
| 20260505084020 | 23 | 248 | 1.6 | 9.7 | 0.00 | 0.00 | 0.00 | 47 | 1017.1 |
| 20260505083041 | 22 | 248 | 1.6 | 8.0 | 0.00 | 0.00 | 0.00 | 45 | 1017.4 |
| 20260505082042 | 22 | 248 | 1.6 | 8.0 | 0.00 | 0.00 | 0.00 | 46 | 1017.3 |
| 20260505081019 | 21 | 248 | 1.6 | 8.0 | 0.00 | 0.00 | 0.00 | 50 | 1017.4 |
| 20260505080019 | 21 | 248 | 1.6 | 6.4 | 0.00 | 0.00 | 0.00 | 48 | 1017.3 |
| 20260505075019 | 21 | 248 | 1.6 | 9.7 | 0.00 | 0.00 | 0.00 | 47 | 1017.4 |
| 20260505074019 | 21 | 248 | 6.4 | 16.1 | 0.00 | 0.00 | 0.00 | 40 | 1017.3 |
| 20260505073042 | 21 | 225 | 4.8 | 17.7 | 0.00 | 0.00 | 0.00 | 40 | 1017.3 |
| 20260505072021 | 20 | 203 | 6.4 | 14.5 | 0.00 | 0.00 | 0.00 | 44 | 1017.5 |
| 20260505071019 | 20 | 203 | 4.8 | 11.3 | 0.00 | 0.00 | 0.00 | 45 | 1017.4 |
| 20260505070019 | 20 | 203 | 6.4 | 12.9 | 0.00 | 0.00 | 0.00 | 46 | 1017.6 |
| 20260505065020 | 19 | 203 | 3.2 | 9.7 | 0.00 | 0.00 | 0.00 | 48 | 1017.6 |
| 20260505064019 | 18 | 203 | 1.6 | 6.4 | 0.00 | 0.00 | 0.00 | 50 | 1017.5 |